| time (UTC) | temp F | wind direction | speed MPH | gust MPH | rain 1hr in | rain 24hr in | rain mn in | humidity % | barometer mb |
| 20260904134838 | 90 | 249 | 3.0 | 9.0 | 0.00 | 0.00 | 0.00 | 44 | 1017.5 |
| 20260904133333 | 89 | 267 | 2.0 | 6.0 | 0.00 | 0.00 | 0.00 | 45 | 1017.5 |
| 20260904131830 | 89 | 207 | 2.0 | 6.0 | 0.00 | 0.00 | 0.00 | 47 | 1017.5 |
| 20260904130343 | 89 | 221 | 3.0 | 6.0 | 0.00 | 0.00 | 0.00 | 47 | 1017.7 |
| 20260904124836 | 88 | 239 | 2.0 | 6.0 | 0.00 | 0.00 | 0.00 | 48 | 1017.9 |
| 20260904123329 | 88 | 208 | 2.0 | 8.0 | 0.00 | 0.00 | 0.00 | 52 | 1018.1 |
| 20260904121830 | 87 | 153 | 0.0 | 6.0 | 0.00 | 0.00 | 0.00 | 53 | 1018.3 |
| 20260904120330 | 87 | 234 | 2.0 | 7.0 | 0.00 | 0.00 | 0.00 | 53 | 1018.4 |
| 20260904114844 | 86 | 125 | 1.0 | 5.0 | 0.00 | 0.00 | 0.00 | 50 | 1018.5 |
| 20260904113346 | 86 | 244 | 2.0 | 7.0 | 0.00 | 0.00 | 0.00 | 50 | 1018.6 |
| 20260904111840 | 86 | 244 | 2.0 | 9.0 | 0.00 | 0.00 | 0.00 | 51 | 1018.8 |
| 20260904110330 | 85 | 169 | 3.0 | 6.0 | 0.00 | 0.00 | 0.00 | 57 | 1018.9 |
| 20260904104830 | 85 | 245 | 2.0 | 9.0 | 0.00 | 0.00 | 0.00 | 53 | 1018.9 |
| 20260904103347 | 84 | 284 | 2.0 | 4.0 | 0.00 | 0.00 | 0.00 | 53 | 1019.1 |
| 20260904101829 | 83 | 196 | 3.0 | 6.0 | 0.00 | 0.00 | 0.00 | 53 | 1019.2 |
| 20260904100328 | 83 | 242 | 1.0 | 5.0 | 0.00 | 0.00 | 0.00 | 56 | 1019.4 |
| 20260904094840 | 82 | 240 | 2.0 | 5.0 | 0.00 | 0.00 | 0.00 | 56 | 1019.5 |
| 20260904093336 | 82 | 239 | 2.0 | 6.0 | 0.00 | 0.00 | 0.00 | 56 | 1019.6 |
| 20260904091846 | 81 | 236 | 2.0 | 4.0 | 0.00 | 0.00 | 0.00 | 55 | 1019.7 |
| 20260904090347 | 80 | 194 | 2.0 | 4.0 | 0.00 | 0.00 | 0.00 | 59 | 1019.6 |
| 20260904084840 | 80 | 148 | 1.0 | 5.0 | 0.00 | 0.00 | 0.00 | 59 | 1019.7 |
| 20260904083329 | 79 | 102 | 1.0 | 2.0 | 0.00 | 0.00 | 0.00 | 58 | 1019.7 |
| 20260904081847 | 78 | 152 | 0.0 | 4.0 | 0.00 | 0.00 | 0.00 | 59 | 1019.7 |
| 20260904080343 | 78 | 115 | 1.0 | 4.0 | 0.00 | 0.00 | 0.00 | 62 | 1019.7 |
| 20260904074837 | 77 | 52 | 1.0 | 4.0 | 0.00 | 0.00 | 0.00 | 63 | 1019.6 |
| 20260904073334 | 76 | 87 | 3.0 | 4.0 | 0.00 | 0.00 | 0.00 | 64 | 1019.7 |
| 20260904071828 | 76 | 119 | 4.0 | 5.0 | 0.00 | 0.00 | 0.00 | 65 | 1019.5 |
| 20260904070341 | 74 | 92 | 1.0 | 4.0 | 0.00 | 0.00 | 0.00 | 67 | 1019.3 |
| 20260904064836 | 73 | 117 | 2.0 | 4.0 | 0.00 | 0.00 | 0.00 | 69 | 1019.4 |
| 20260904063328 | 72 | 83 | 1.0 | 5.0 | 0.00 | 0.00 | 0.00 | 70 | 1019.2 |
| 20260904061827 | 71 | 52 | 0.0 | 0.0 | 0.00 | 0.00 | 0.00 | 74 | 1019.1 |
| 20260904060342 | 69 | 47 | 2.0 | 3.0 | 0.00 | 0.00 | 0.00 | 75 | 1019.1 |
| 20260904054832 | 68 | 45 | 2.0 | 3.0 | 0.00 | 0.00 | 0.00 | 77 | 1019.2 |
| 20260904053328 | 67 | 45 | 3.0 | 4.0 | 0.00 | 0.00 | 0.00 | 78 | 1019.0 |
| 20260904051828 | 66 | 102 | 3.0 | 5.0 | 0.00 | 0.00 | 0.00 | 80 | 1018.8 |
| 20260904050344 | 65 | 21 | 0.0 | 3.0 | 0.00 | 0.00 | 0.00 | 81 | 1018.8 |
| 20260904044845 | 65 | 21 | 2.0 | 3.0 | 0.00 | 0.00 | 0.00 | 80 | 1018.7 |
| 20260904043338 | 66 | 21 | 2.0 | 4.0 | 0.00 | 0.00 | 0.00 | 80 | 1018.6 |
| 20260904041830 | 66 | 21 | 2.0 | 3.0 | 0.00 | 0.00 | 0.00 | 80 | 1018.6 |
| 20260904040344 | 66 | 18 | 0.0 | 0.0 | 0.00 | 0.00 | 0.00 | 80 | 1018.6 |
| 20260904034837 | 66 | 15 | 1.0 | 4.0 | 0.00 | 0.00 | 0.00 | 79 | 1018.6 |
| 20260904033334 | 67 | 13 | 2.0 | 3.0 | 0.00 | 0.00 | 0.00 | 77 | 1018.6 |
| 20260904031833 | 67 | 13 | 3.0 | 4.0 | 0.00 | 0.00 | 0.00 | 76 | 1018.6 |
| 20260904030331 | 68 | 52 | 1.0 | 3.0 | 0.00 | 0.00 | 0.00 | 76 | 1018.6 |
| 20260904024843 | 68 | 45 | 2.0 | 4.0 | 0.00 | 0.00 | 0.00 | 77 | 1018.6 |
| 20260904023341 | 68 | 39 | 3.0 | 4.0 | 0.00 | 0.00 | 0.00 | 78 | 1018.7 |
| 20260904021834 | 68 | 56 | 0.0 | 0.0 | 0.00 | 0.00 | 0.00 | 79 | 1018.6 |
| 20260904020329 | 68 | 56 | 0.0 | 0.0 | 0.00 | 0.00 | 0.00 | 79 | 1018.6 |
| 20260904014826 | 68 | 56 | 0.0 | 0.0 | 0.00 | 0.00 | 0.00 | 77 | 1018.5 |
| 20260904013344 | 68 | 56 | 2.0 | 4.0 | 0.00 | 0.00 | 0.00 | 77 | 1018.4 |
| 20260904011833 | 68 | 57 | 0.0 | 0.0 | 0.00 | 0.00 | 0.00 | 77 | 1018.5 |
| 20260904010330 | 69 | 57 | 0.0 | 3.0 | 0.00 | 0.00 | 0.00 | 76 | 1018.4 |
| 20260904004845 | 68 | 26 | 3.0 | 4.0 | 0.00 | 0.00 | 0.00 | 77 | 1018.4 |
| 20260904003331 | 69 | 25 | 0.0 | 0.0 | 0.00 | 0.00 | 0.00 | 77 | 1018.5 |
| 20260904001844 | 69 | 25 | 0.0 | 0.0 | 0.00 | 0.00 | 0.00 | 77 | 1018.6 |
| 20260904000335 | 69 | 26 | 2.0 | 3.0 | 0.00 | 0.00 | 0.00 | 77 | 1018.7 |
| 20260903234831 | 69 | 25 | 0.0 | 0.0 | 0.00 | 0.00 | 0.00 | 77 | 1018.7 |
| 20260903233347 | 70 | 25 | 0.0 | 0.0 | 0.00 | 0.00 | 0.00 | 76 | 1018.9 |
| 20260903231838 | 70 | 25 | 1.0 | 2.0 | 0.00 | 0.00 | 0.00 | 74 | 1018.8 |
| 20260903230331 | 71 | 25 | 2.0 | 4.0 | 0.00 | 0.00 | 0.00 | 74 | 1018.7 |
| 20260903224830 | 71 | 53 | 0.0 | 0.0 | 0.00 | 0.00 | 0.00 | 73 | 1018.6 |
| 20260903223331 | 71 | 53 | 3.0 | 4.0 | 0.00 | 0.00 | 0.00 | 73 | 1018.7 |
| 20260903221842 | 71 | 71 | 2.0 | 4.0 | 0.00 | 0.00 | 0.00 | 74 | 1018.8 |
| 20260903220331 | 71 | 40 | 1.0 | 5.0 | 0.00 | 0.00 | 0.00 | 75 | 1018.8 |
| 20260903214829 | 71 | 19 | 3.0 | 5.0 | 0.00 | 0.00 | 0.00 | 74 | 1018.7 |
| 20260903213347 | 71 | 21 | 1.0 | 5.0 | 0.00 | 0.00 | 0.00 | 71 | 1018.7 |
| 20260903211840 | 72 | 24 | 3.0 | 6.0 | 0.00 | 0.00 | 0.00 | 71 | 1018.6 |
| 20260903210332 | 71 | 78 | 3.0 | 6.0 | 0.00 | 0.00 | 0.00 | 73 | 1018.6 |
| 20260903204845 | 72 | 72 | 3.0 | 5.0 | 0.00 | 0.00 | 0.00 | 73 | 1018.6 |
| 20260903203335 | 73 | 26 | 0.0 | 2.0 | 0.00 | 0.00 | 0.00 | 73 | 1018.6 |
| 20260903201831 | 73 | 25 | 1.0 | 3.0 | 0.00 | 0.00 | 0.00 | 73 | 1018.5 |
| 20260903200338 | 73 | 26 | 0.0 | 1.0 | 0.00 | 0.00 | 0.00 | 72 | 1018.4 |
| 20260903194829 | 74 | 25 | 1.0 | 2.0 | 0.00 | 0.00 | 0.00 | 72 | 1018.4 |
| 20260903193344 | 75 | 25 | 0.0 | 2.0 | 0.00 | 0.00 | 0.00 | 71 | 1018.3 |
| 20260903191847 | 75 | 355 | 2.0 | 3.0 | 0.00 | 0.00 | 0.00 | 70 | 1018.2 |
| 20260903190341 | 76 | 355 | 0.0 | 3.0 | 0.00 | 0.00 | 0.00 | 67 | 1018.0 |
| 20260903184831 | 77 | 355 | 0.0 | 0.0 | 0.00 | 0.00 | 0.00 | 66 | 1017.8 |
| 20260903183343 | 78 | 339 | 0.0 | 0.0 | 0.00 | 0.00 | 0.00 | 64 | 1017.8 |
| 20260903181844 | 80 | 339 | 0.0 | 0.0 | 0.00 | 0.00 | 0.00 | 59 | 1017.6 |
| 20260903180344 | 81 | 339 | 0.0 | 0.0 | 0.00 | 0.00 | 0.00 | 55 | 1017.5 |
| 20260903174843 | 82 | 338 | 0.0 | 0.0 | 0.00 | 0.00 | 0.00 | 53 | 1017.4 |
| 20260903173335 | 83 | 338 | 0.0 | 0.0 | 0.00 | 0.00 | 0.00 | 51 | 1017.2 |
| 20260903171848 | 84 | 339 | 0.0 | 3.0 | 0.00 | 0.00 | 0.00 | 47 | 1017.3 |
| 20260903170344 | 85 | 344 | 2.0 | 3.0 | 0.00 | 0.00 | 0.00 | 45 | 1017.2 |
| 20260903164844 | 86 | 344 | 2.0 | 4.0 | 0.00 | 0.00 | 0.00 | 43 | 1017.2 |
| 20260903163325 | 87 | 349 | 3.0 | 5.0 | 0.00 | 0.00 | 0.00 | 43 | 1017.2 |
| 20260903161830 | 88 | 321 | 3.0 | 7.0 | 0.00 | 0.00 | 0.00 | 42 | 1017.2 |
| 20260903160325 | 88 | 270 | 2.0 | 5.0 | 0.00 | 0.00 | 0.00 | 43 | 1017.2 |
| 20260903154838 | 89 | 325 | 4.0 | 7.0 | 0.00 | 0.00 | 0.00 | 43 | 1017.2 |
| 20260903153348 | 88 | 281 | 4.0 | 7.0 | 0.00 | 0.00 | 0.00 | 42 | 1017.1 |
| 20260903151845 | 88 | 259 | 3.0 | 10.0 | 0.00 | 0.00 | 0.00 | 40 | 1017.2 |
| 20260903150342 | 88 | 344 | 3.0 | 7.0 | 0.00 | 0.00 | 0.00 | 41 | 1017.4 |
| 20260903144847 | 88 | 240 | 0.0 | 5.0 | 0.00 | 0.00 | 0.00 | 43 | 1017.5 |
| 20260903143344 | 88 | 313 | 1.0 | 6.0 | 0.00 | 0.00 | 0.00 | 48 | 1017.3 |
| 20260903141845 | 88 | 257 | 4.0 | 5.0 | 0.00 | 0.00 | 0.00 | 46 | 1017.6 |
| 20260903140342 | 87 | 220 | 2.0 | 5.0 | 0.00 | 0.00 | 0.00 | 43 | 1017.8 |